Tracking 19242 objects as of 16-Aug-2018
HD Live streaming from Space Station
objects crossing your sky now

FENGYUN 1C DEB

Track FENGYUN 1C DEB now!
10-day predictions


NORAD ID: 31353
Int'l Code: 1999-025BRH
Perigee: 644.3 km
Apogee: 1,000.5 km
Inclination: 99.1 °
Period: 101.2 minutes
Semi major axis: 7193 km
RCS: 0.0153 m2 (small)
Launch date: May 10, 1999
Source: People's Republic of China (PRC)
Launch site: Taiyaun Space Center, China (TSC)

Note: This is SATELLITE DEBRIS
aabbcc
Your satellite tracking list
Your tracking list is empty




NASA's NSSDC Master Catalog

Two Line Element Set (TLE):
1 31353U 99025BRH 18228.19256951  .00000194  00000-0  80703-4 0  9995
2 31353  99.1144  24.3262 0247568 199.4650 159.6944 14.22987602589573
Source of the keplerian elements: AFSPC